Clair, ciel sans nuage
Clair avec quelques nuages bas
Clair avec quelques nuages bas
Clair avec quelques nuages bas
Clair avec quelques nuages bas
Clair avec quelques nuages bas
Clair avec quelques nuages bas
Partiellement nuageux
Partiellement nuageux
(°C)
26°
26°
27°
27°
29°
29°
29°
29°
30°
30°
30°
30°
30°
30°
29°
29°
28°
28°
(°C)
28°
30°
32°
32°
32°
31°
30°
29°
27°
NO
NO
NO
O
ONO
ONO
NO
NO
NO
(km/h)
4-10
5-10
5-11
6-11
6-13
7-15
8-17
10-19
12-21
(mm)
0
0
0
0
0
0
0
0
0
(%)
0
0
0
0
0
0
0
0
0

Élévation du soleil

/ 56.8°
sun-icon
UV 8
06:33
21:37
Gibbeuse décroissante (235°)
23:54
11:24

METAR pour Angoulême (LFBU)

Heure Conditions Température/
Point de rosée
Vent Visibilité Météo Nuages Pression Changement Brut
VFR 26°C / 16°C 140º variable 070º to 180º 4kt 9700m - Few Clouds 4200ft 1016 No Significant change LFBU 251000Z AUTO 14004KT 070V180 9999 FEW042 26/16 Q1016 NOSIG
VFR 25°C / 15°C 3kt 9700m - Clouds and Visibility OK 1016 No Significant change LFBU 250930Z AUTO VRB03KT CAVOK 25/15 Q1016 NOSIG
VFR 25°C / 15°C 3kt 9700m - Clouds and Visibility OK 1016 No Significant change LFBU 250900Z AUTO VRB03KT CAVOK 25/15 Q1016 NOSIG
VFR 24°C / 17°C 1kt 9700m - Clouds and Visibility OK 1016 No Significant change LFBU 250830Z AUTO VRB01KT CAVOK 24/17 Q1016 NOSIG
VFR 23°C / 16°C 2kt 9700m - Clouds and Visibility OK 1016 No Significant change LFBU 250800Z AUTO VRB02KT CAVOK 23/16 Q1016 NOSIG
VFR 22°C / 17°C variable 0kt 9700m - Clouds and Visibility OK 1016 No Significant change LFBU 250730Z AUTO 00000KT CAVOK 22/17 Q1016 NOSIG
VFR 21°C / 17°C 1kt 9700m - Clouds and Visibility OK 1016 No Significant change LFBU 250700Z AUTO VRB01KT CAVOK 21/17 Q1016 NOSIG
VFR 19°C / 17°C 2kt 9700m - Clouds and Visibility OK 1016 No Significant change LFBU 250630Z AUTO VRB02KT CAVOK 19/17 Q1016 NOSIG
VFR 18°C / 16°C variable 0kt 9700m - Clouds and Visibility OK 1016 No Significant change LFBU 250600Z AUTO 00000KT CAVOK 18/16 Q1016 NOSIG
VFR 16°C / 15°C variable 0kt 9700m - Clouds and Visibility OK 1017 No Significant change LFBU 250530Z AUTO 00000KT CAVOK 16/15 Q1017 NOSIG
VFR 15°C / 15°C variable 0kt 9700m - Clouds and Visibility OK 1017 - LFBU 250500Z AUTO 00000KT CAVOK 15/15 Q1017
VFR 15°C / 15°C 100º 1kt 9700m - Clouds and Visibility OK 1017 - LFBU 250430Z AUTO 10001KT CAVOK 15/15 Q1017
VFR 15°C / 15°C 140º 2kt 9700m - Clouds and Visibility OK 1017 - LFBU 250400Z AUTO 14002KT CAVOK 15/15 Q1017
VFR 15°C / 15°C 130º 1kt 9700m - Clouds and Visibility OK 1017 - LFBU 250330Z AUTO 13001KT CAVOK 15/15 Q1017
VFR 15°C / 15°C 80º 1kt 9700m - Clouds and Visibility OK 1017 - LFBU 250300Z AUTO 08001KT CAVOK 15/15 Q1017
VFR 15°C / 15°C 130º 2kt 9700m - Clouds and Visibility OK 1017 - LFBU 250230Z AUTO 13002KT CAVOK 15/15 Q1017
VFR 15°C / 14°C 130º 1kt 9700m - Clouds and Visibility OK 1017 - LFBU 250200Z AUTO 13001KT CAVOK 15/14 Q1017
VFR 16°C / 15°C variable 0kt 9700m - Clouds and Visibility OK 1017 - LFBU 250130Z AUTO 00000KT CAVOK 16/15 Q1017
VFR 17°C / 15°C variable 0kt 9700m - Clouds and Visibility OK 1017 - LFBU 250100Z AUTO 00000KT CAVOK 17/15 Q1017
VFR 17°C / 15°C 1kt 9700m - Clouds and Visibility OK 1018 - LFBU 250030Z AUTO VRB01KT CAVOK 17/15 Q1018
VFR 18°C / 16°C 2kt 9700m - Clouds and Visibility OK 1018 - LFBU 250000Z AUTO VRB02KT CAVOK 18/16 Q1018
VFR 18°C / 16°C 1kt 9700m - Clouds and Visibility OK 1018 - LFBU 242330Z AUTO VRB01KT CAVOK 18/16 Q1018
VFR 19°C / 16°C 2kt 9700m - Clouds and Visibility OK 1018 - LFBU 242300Z AUTO VRB02KT CAVOK 19/16 Q1018
VFR 19°C / 16°C 260º 3kt 9700m - Clouds and Visibility OK 1018 - LFBU 242230Z AUTO 26003KT CAVOK 19/16 Q1018

VFR

26°C / 16°C

[Plus]
Vent 140º variable 070º to 180º 4kt
Visibilité 9700m
Météo -
Nuages Few Clouds 4200ft
Pression 1016
Changement No Significant change
Brut LFBU 251000Z AUTO 14004KT 070V180 9999 FEW042 26/16 Q1016 NOSIG

VFR

25°C / 15°C

[Plus]
Vent 3kt
Visibilité 9700m
Météo -
Nuages Clouds and Visibility OK
Pression 1016
Changement No Significant change
Brut LFBU 250930Z AUTO VRB03KT CAVOK 25/15 Q1016 NOSIG

VFR

25°C / 15°C

[Plus]
Vent 3kt
Visibilité 9700m
Météo -
Nuages Clouds and Visibility OK
Pression 1016
Changement No Significant change
Brut LFBU 250900Z AUTO VRB03KT CAVOK 25/15 Q1016 NOSIG

VFR

24°C / 17°C

[Plus]
Vent 1kt
Visibilité 9700m
Météo -
Nuages Clouds and Visibility OK
Pression 1016
Changement No Significant change
Brut LFBU 250830Z AUTO VRB01KT CAVOK 24/17 Q1016 NOSIG

VFR

23°C / 16°C

[Plus]
Vent 2kt
Visibilité 9700m
Météo -
Nuages Clouds and Visibility OK
Pression 1016
Changement No Significant change
Brut LFBU 250800Z AUTO VRB02KT CAVOK 23/16 Q1016 NOSIG

VFR

22°C / 17°C

[Plus]
Vent variable 0kt
Visibilité 9700m
Météo -
Nuages Clouds and Visibility OK
Pression 1016
Changement No Significant change
Brut LFBU 250730Z AUTO 00000KT CAVOK 22/17 Q1016 NOSIG

VFR

21°C / 17°C

[Plus]
Vent 1kt
Visibilité 9700m
Météo -
Nuages Clouds and Visibility OK
Pression 1016
Changement No Significant change
Brut LFBU 250700Z AUTO VRB01KT CAVOK 21/17 Q1016 NOSIG

VFR

19°C / 17°C

[Plus]
Vent 2kt
Visibilité 9700m
Météo -
Nuages Clouds and Visibility OK
Pression 1016
Changement No Significant change
Brut LFBU 250630Z AUTO VRB02KT CAVOK 19/17 Q1016 NOSIG

VFR

18°C / 16°C

[Plus]
Vent variable 0kt
Visibilité 9700m
Météo -
Nuages Clouds and Visibility OK
Pression 1016
Changement No Significant change
Brut LFBU 250600Z AUTO 00000KT CAVOK 18/16 Q1016 NOSIG

VFR

16°C / 15°C

[Plus]
Vent variable 0kt
Visibilité 9700m
Météo -
Nuages Clouds and Visibility OK
Pression 1017
Changement No Significant change
Brut LFBU 250530Z AUTO 00000KT CAVOK 16/15 Q1017 NOSIG

VFR

15°C / 15°C

[Plus]
Vent variable 0kt
Visibilité 9700m
Météo -
Nuages Clouds and Visibility OK
Pression 1017
Changement -
Brut LFBU 250500Z AUTO 00000KT CAVOK 15/15 Q1017

VFR

15°C / 15°C

[Plus]
Vent 100º 1kt
Visibilité 9700m
Météo -
Nuages Clouds and Visibility OK
Pression 1017
Changement -
Brut LFBU 250430Z AUTO 10001KT CAVOK 15/15 Q1017

VFR

15°C / 15°C

[Plus]
Vent 140º 2kt
Visibilité 9700m
Météo -
Nuages Clouds and Visibility OK
Pression 1017
Changement -
Brut LFBU 250400Z AUTO 14002KT CAVOK 15/15 Q1017

VFR

15°C / 15°C

[Plus]
Vent 130º 1kt
Visibilité 9700m
Météo -
Nuages Clouds and Visibility OK
Pression 1017
Changement -
Brut LFBU 250330Z AUTO 13001KT CAVOK 15/15 Q1017

VFR

15°C / 15°C

[Plus]
Vent 80º 1kt
Visibilité 9700m
Météo -
Nuages Clouds and Visibility OK
Pression 1017
Changement -
Brut LFBU 250300Z AUTO 08001KT CAVOK 15/15 Q1017

VFR

15°C / 15°C

[Plus]
Vent 130º 2kt
Visibilité 9700m
Météo -
Nuages Clouds and Visibility OK
Pression 1017
Changement -
Brut LFBU 250230Z AUTO 13002KT CAVOK 15/15 Q1017

VFR

15°C / 14°C

[Plus]
Vent 130º 1kt
Visibilité 9700m
Météo -
Nuages Clouds and Visibility OK
Pression 1017
Changement -
Brut LFBU 250200Z AUTO 13001KT CAVOK 15/14 Q1017

VFR

16°C / 15°C

[Plus]
Vent variable 0kt
Visibilité 9700m
Météo -
Nuages Clouds and Visibility OK
Pression 1017
Changement -
Brut LFBU 250130Z AUTO 00000KT CAVOK 16/15 Q1017

VFR

17°C / 15°C

[Plus]
Vent variable 0kt
Visibilité 9700m
Météo -
Nuages Clouds and Visibility OK
Pression 1017
Changement -
Brut LFBU 250100Z AUTO 00000KT CAVOK 17/15 Q1017

VFR

17°C / 15°C

[Plus]
Vent 1kt
Visibilité 9700m
Météo -
Nuages Clouds and Visibility OK
Pression 1018
Changement -
Brut LFBU 250030Z AUTO VRB01KT CAVOK 17/15 Q1018

VFR

18°C / 16°C

[Plus]
Vent 2kt
Visibilité 9700m
Météo -
Nuages Clouds and Visibility OK
Pression 1018
Changement -
Brut LFBU 250000Z AUTO VRB02KT CAVOK 18/16 Q1018

VFR

18°C / 16°C

[Plus]
Vent 1kt
Visibilité 9700m
Météo -
Nuages Clouds and Visibility OK
Pression 1018
Changement -
Brut LFBU 242330Z AUTO VRB01KT CAVOK 18/16 Q1018

VFR

19°C / 16°C

[Plus]
Vent 2kt
Visibilité 9700m
Météo -
Nuages Clouds and Visibility OK
Pression 1018
Changement -
Brut LFBU 242300Z AUTO VRB02KT CAVOK 19/16 Q1018

VFR

19°C / 16°C

[Plus]
Vent 260º 3kt
Visibilité 9700m
Météo -
Nuages Clouds and Visibility OK
Pression 1018
Changement -
Brut LFBU 242230Z AUTO 26003KT CAVOK 19/16 Q1018

TAF pour Angoulême (LFBU)

From till


From till Wind 2kt. Visibility 9700m. Nil Significant Cloud.
With 40% probability, Temporarly from till Visibility 3000m. Mist . Broken Clouds 300ft.

Brut: TAF LFBU 250500Z 2506/2606 VRB02KT CAVOK PROB40 TEMPO 2604/2606 3000 BR BKN003

Radar et prévision de précipitation à court terme pour Angoulême

Bruine
Légère
Modéré
Fort
Très fort
Grêle

Le marqueur est placé sur Angoulême. Cette animation montre le radar des précipitations pour la plage horaire sélectionnée, ainsi qu'une 2h prévision. Les croix orange indiquent la foudre. Données fournies par nowcast.de (disponibles aux États-Unis, en Europe et en Australie). Une bruine ou une légère chute de neige peut être invisible pour le radar. L'intensité des précipitations est codée par couleur, allant du turquoise au rouge.

Les images satellites et les pluies actuelles pour Angoulême, France

Le marqueur est placé sur Angoulême. [Plus]

L'image satellite en temps réel combine la lumière visible pendant la journée et le rayonnement infrarouge pendant la nuit. La nuit, l'image n'est pas sombre car le rayonnement infrarouge permet de détecter les différences de température. Malheureusement, les nuages bas et le brouillard sont difficiles à distinguer des températures au sol et peuvent donc être presque invisibles pendant la nuit. Les images des satellites Météosat pour l'Europe sont mises à jour en temps réel toutes les 5 minutes. Les images GOES-16/GOES-17 (Amérique du Nord et du Sud) et Himawari (Asie) sont mises à jour toutes les 10 minutes.

Les précipitations sont estimées à partir de radars et de satellites. Les estimations des précipitations par satellite sont moins précises la nuit que le jour.

© 2024 meteoblue, NOAA Satellites GOES-16 and EUMETSAT. Données de foudre fournies par nowcast.

Retour vers le haut
×
Salut,
Il semble que vous utilisiez un logiciel antipub.

La publicité est essentielle pour maintenir notre site web gratuit avec des détails et précision uniques.

Veuillez mettre www.meteoblue.com sur la liste blanche de votre bloqueur de publicité ou envisager d'acheter l'un de nos produits :

Vous avez déjà un abonnement ?
Dans ce cas, veuillez vous connecter.